FW5763 Weather Reports


time (UTC)temp
F
wind
direction
speed
knots
gust
knots
rain 1hr
in
rain 24hr
in
rain mn
in
humidity
%
barometer
mb
20260507041117 62 0.0 0.9 0.00 0.00 0.00 78 1019.1
20260507040116 62 0.0 0.0 0.00 0.00 0.00 79 1019.0
20260507035136 62 0.0 0.0 0.00 0.00 0.00 79 1018.9
20260507034117 62 241 0.9 1.7 0.00 0.00 0.00 78 1019.0
20260507033116 63 263 0.9 1.7 0.00 0.00 0.00 77 1018.8
20260507032117 64 194 0.9 1.7 0.00 0.00 0.00 75 1018.7
20260507031136 65 180 0.9 1.7 0.00 0.00 0.00 72 1018.7
20260507030117 67 142 0.9 3.5 0.00 0.00 0.00 68 1018.5
20260507025116 69 192 0.0 0.9 0.00 0.00 0.00 64 1018.4
20260507024117 69 0.0 0.0 0.00 0.00 0.00 65 1018.4
20260507023116 69 91 1.7 2.6 0.00 0.00 0.00 63 1018.2
20260507022136 70 105 1.7 5.2 0.00 0.00 0.00 61 1018.2
20260507021136 70 123 2.6 5.2 0.00 0.00 0.00 59 1018.2
20260507020137 71 100 3.5 7.0 0.00 0.00 0.00 58 1018.2
20260507015116 72 99 2.6 4.3 0.00 0.00 0.00 55 1018.2
20260507014116 73 141 0.9 2.6 0.00 0.00 0.00 53 1018.2
20260507013116 74 242 2.6 3.5 0.00 0.00 0.00 55 1018.3
20260507012116 74 242 2.6 5.2 0.00 0.00 0.00 54 1018.3
20260507011116 74 266 3.5 5.2 0.00 0.00 0.00 55 1018.2
20260507010116 74 253 2.6 5.2 0.00 0.00 0.00 56 1018.1
20260507005115 74 141 3.5 7.8 0.00 0.00 0.00 55 1018.1
20260507004116 74 198 4.3 7.0 0.00 0.00 0.00 55 1018.0
20260507003116 74 171 3.5 7.8 0.00 0.00 0.00 55 1018.0
20260507002116 75 179 4.3 7.8 0.00 0.00 0.00 54 1017.9
20260507001116 74 236 2.6 3.5 0.00 0.00 0.00 55 1017.9
20260507000116 74 207 2.6 4.3 0.00 0.00 0.00 55 1017.8
20260506235116 73 222 3.5 7.0 0.00 0.00 0.00 55 1017.9
20260506234117 73 194 5.2 7.8 0.00 0.00 0.00 55 1017.9
20260506233116 73 183 3.5 6.1 0.00 0.00 0.00 55 1018.0
20260506232136 73 171 3.5 5.2 0.00 0.00 0.00 56 1018.0
20260506231116 73 235 1.7 3.5 0.00 0.00 0.00 56 1018.0
20260506230116 72 195 3.5 5.2 0.00 0.00 0.00 57 1018.2
20260506225136 72 224 2.6 7.0 0.00 0.00 0.00 57 1018.5
20260506224116 72 229 4.3 6.1 0.00 0.00 0.00 57 1018.6
20260506223116 72 277 2.6 5.2 0.00 0.00 0.00 57 1018.6
20260506222116 72 204 4.3 7.8 0.00 0.00 0.00 56 1018.6
20260506221117 71 157 2.6 7.0 0.00 0.00 0.00 58 1018.7
20260506220116 71 213 5.2 9.6 0.00 0.00 0.00 58 1018.8
20260506215115 71 195 6.1 7.8 0.00 0.00 0.00 59 1018.8
20260506214156 70 181 2.6 7.0 0.00 0.00 0.00 60 1019.1
20260506213116 70 245 7.0 10.4 0.00 0.00 0.00 60 1019.3
20260506212116 70 227 6.1 12.2 0.00 0.00 0.00 61 1019.4
20260506211116 70 207 7.8 10.4 0.00 0.00 0.00 61 1019.4
20260506210116 70 230 7.0 9.6 0.00 0.00 0.00 61 1019.6
20260506205136 69 199 5.2 8.7 0.00 0.00 0.00 62 1019.5
20260506204117 70 201 5.2 9.6 0.00 0.00 0.00 61 1019.7
20260506203136 70 214 4.3 6.1 0.00 0.00 0.00 62 1019.8
20260506202116 69 211 3.5 6.1 0.00 0.00 0.00 62 1019.9
20260506201116 69 209 4.3 8.7 0.00 0.00 0.00 62 1020.0
20260506200136 68 206 4.3 9.6 0.00 0.00 0.00 63 1020.0
20260506195116 68 211 4.3 7.8 0.00 0.00 0.00 64 1020.1
20260506194136 67 185 3.5 7.0 0.00 0.00 0.00 64 1020.2
20260506193116 67 213 2.6 7.0 0.00 0.00 0.00 65 1020.2
20260506192116 66 203 3.5 7.0 0.00 0.00 0.00 67 1020.3
20260506191116 66 218 4.3 7.0 0.00 0.00 0.00 66 1020.4
20260506190116 66 215 3.5 7.0 0.00 0.00 0.00 66 1020.3
20260506185116 66 195 4.3 7.8 0.00 0.00 0.00 66 1020.3
20260506184116 66 138 4.3 7.8 0.00 0.00 0.00 66 1020.3
20260506183116 66 206 4.3 7.8 0.00 0.00 0.00 68 1020.3
20260506182116 65 193 3.5 7.0 0.00 0.00 0.00 69 1020.5
20260506181116 64 218 4.3 6.1 0.00 0.00 0.00 70 1020.5
20260506180116 64 218 4.3 5.2 0.00 0.00 0.00 71 1020.5
20260506175116 64 221 6.1 7.8 0.00 0.00 0.00 72 1020.6
20260506174116 64 207 4.3 5.2 0.00 0.00 0.00 72 1020.5
20260506173136 63 180 3.5 6.1 0.00 0.00 0.00 73 1020.5
20260506172116 63 181 3.5 5.2 0.00 0.00 0.00 75 1020.6
20260506171116 62 175 2.6 4.3 0.00 0.00 0.00 75 1020.5
20260506170116 62 210 3.5 7.0 0.00 0.00 0.00 75 1020.5
20260506165116 62 244 2.6 7.0 0.00 0.00 0.00 75 1020.5
20260506164136 62 235 3.5 5.2 0.00 0.00 0.00 73 1020.7
20260506163116 61 311 1.7 2.6 0.00 0.00 0.00 75 1020.7
20260506162136 61 227 1.7 4.3 0.00 0.00 0.00 75 1020.7
20260506161115 61 209 1.7 2.6 0.00 0.00 0.00 76 1020.7
20260506160116 60 236 1.7 3.5 0.00 0.00 0.00 77 1020.8
20260506155116 60 219 1.7 2.6 0.00 0.00 0.00 78 1020.8
20260506154156 60 231 1.7 1.7 0.00 0.00 0.00 78 1020.8
20260506153116 60 265 0.9 1.7 0.00 0.00 0.00 77 1020.9
20260506152116 60 158 0.0 1.7 0.00 0.00 0.00 78 1020.8
20260506151136 60 51 0.9 2.6 0.00 0.00 0.00 79 1020.8
20260506150136 59 96 0.9 2.6 0.00 0.00 0.00 81 1020.9
20260506145136 58 14 0.9 0.9 0.00 0.00 0.00 83 1020.8
20260506144116 58 92 1.7 2.6 0.00 0.00 0.00 85 1021.0
20260506143116 57 80 0.0 1.7 0.00 0.00 0.00 87 1020.9
20260506142116 56 0.0 0.0 0.00 0.00 0.00 90 1021.0
20260506141116 55 352 0.0 0.9 0.00 0.00 0.00 91 1020.8
20260506140116 54 0.0 0.0 0.00 0.00 0.00 91 1020.7
20260506135136 54 0.0 0.9 0.00 0.00 0.00 91 1020.5
20260506134136 54 0.0 0.0 0.00 0.00 0.00 91 1020.4
20260506133135 54 0.0 0.0 0.00 0.00 0.00 91 1020.3
20260506132115 54 0.0 0.0 0.00 0.00 0.00 91 1020.2
20260506131116 54 0.0 0.0 0.00 0.00 0.00 91 1020.0
20260506130116 54 0.0 0.0 0.00 0.00 0.00 91 1020.0
20260506125135 54 0.0 0.0 0.00 0.00 0.00 91 1019.9
20260506124115 54 0.0 0.0 0.00 0.00 0.00 91 1019.9
20260506123236 54 0.0 0.0 0.00 0.00 0.00 91 1019.9
20260506122115 54 352 0.0 0.9 0.00 0.00 0.00 91 1019.8
20260506121115 53 352 0.9 0.9 0.00 0.00 0.00 91 1019.7
20260506120116 54 0.0 0.0 0.00 0.00 0.00 90 1019.7
20260506115135 54 0.0 0.0 0.00 0.00 0.00 91 1019.6
20260506114115 54 0.0 0.0 0.00 0.00 0.00 91 1019.6
20260506113116 53 0.0 0.0 0.00 0.00 0.00 91 1019.6
20260506112135 53 352 0.0 0.9 0.00 0.00 0.00 91 1019.6
20260506111115 53 0.0 0.0 0.00 0.00 0.00 91 1019.5
20260506110116 53 0.0 0.0 0.00 0.00 0.00 91 1019.5
20260506105135 53 0.0 0.0 0.00 0.00 0.00 91 1019.5
20260506104115 53 0.0 0.0 0.00 0.00 0.00 91 1019.4
20260506103116 53 0.0 0.0 0.00 0.00 0.00 91 1019.4
20260506102116 53 0.0 0.9 0.00 0.00 0.00 91 1019.5
20260506101115 52 0.0 0.0 0.00 0.00 0.00 91 1019.5
20260506100115 52 0.0 0.0 0.00 0.00 0.00 91 1019.5
20260506095115 52 0.0 0.0 0.00 0.00 0.00 90 1019.4
20260506094115 52 0.0 0.0 0.00 0.00 0.00 90 1019.6
20260506093115 52 0.0 0.0 0.00 0.00 0.00 90 1019.7
20260506092116 52 0.0 0.0 0.00 0.00 0.00 89 1019.7
20260506091115 52 26 0.9 1.7 0.00 0.00 0.00 89 1019.6
20260506090116 52 0.0 0.0 0.00 0.00 0.00 89 1019.5
20260506085116 52 0.0 0.0 0.00 0.00 0.00 89 1019.4
20260506084116 52 26 0.0 0.9 0.00 0.00 0.00 88 1019.5
20260506083115 53 0.0 0.0 0.00 0.00 0.00 87 1019.4
20260506082115 53 0.0 0.0 0.00 0.00 0.00 87 1019.4
20260506081135 53 0.0 0.0 0.00 0.00 0.00 87 1019.3
20260506080115 54 0.0 0.0 0.00 0.00 0.00 87 1019.3
20260506073115 55 0.0 0.0 0.00 0.00 0.00 86 1019.0
20260506072115 55 0.0 0.0 0.00 0.00 0.00 86 1019.0
20260506071115 55 26 0.0 0.9 0.00 0.00 0.00 86 1019.0
20260506070115 55 0.0 0.9 0.00 0.00 0.00 85 1018.9
20260506062115 56 0.0 0.0 0.00 0.00 0.00 85 1018.7
20260506061135 56 0.0 0.0 0.00 0.00 0.00 84 1018.7
20260506060115 56 0.0 0.0 0.00 0.00 0.00 84 1018.7
20260506051115 57 0.0 0.0 0.00 0.00 0.00 81 1018.5
20260506050115 57 0.0 0.0 0.00 0.00 0.00 81 1018.4
20260506045115 57 0.0 0.0 0.00 0.00 0.00 82 1018.3
20260506044115 57 0.0 0.0 0.00 0.00 0.00 82 1018.2
20260506043115 57 0.0 0.0 0.00 0.00 0.00 82 1018.1
20260506042115 57 0.0 0.9 0.00 0.00 0.00 83 1018.1